Regional Weather Roundup
Issued by NWS Charleston, WV

Home | Current Version | Previous Version | Graphics & Text | Print | Product List | Glossary On
Versions: 1 2 3 4 5 6 7 8 9 10 11 12 13 14 15 16 17 18 19 20 21 22 23 24 25 26 27 28 29 30 31 32 33 34 35 36 37 38 39 40 41 42 43 44 45 46 47 48 49 50
000
ASUS41 KRLX 171710
RWRRLX
West Virginia Regional Weather Roundup
National Weather Service Charleston WV
1200 PM EST TUE JAN 17 2017

Note: "fair" indicates few or no clouds below 12,000 feet with no
significant weather and/or obstructions to visibility.

WVZ003-171800-
Northern Panhandle of West Virginia

CITY           SKY/WX    TMP DP  RH WIND       PRES   REMARKS
WHEELING       CLOUDY    57  53  86 S21G28    29.87F
$$

WVZ009-171800-
Northwest West Virginia

CITY           SKY/WX    TMP DP  RH WIND       PRES   REMARKS
PARKERSBURG    LGT RAIN  57  55  93 SW8       29.94F FOG
$$

WVZ006-171800-
Western West Virginia

CITY           SKY/WX    TMP DP  RH WIND       PRES   REMARKS
HUNTINGTON     CLOUDY    62  57  83 SW14G23   29.94F
$$

WVZ015-171800-
West Central West Virginia

CITY           SKY/WX    TMP DP  RH WIND       PRES   REMARKS
CHARLESTON     CLOUDY    64  54  69 SW21G29   29.95F
$$

WVZ022-031-171800-
North Central West Virginia

CITY           SKY/WX    TMP DP  RH WIND       PRES   REMARKS
CLARKSBURG     LGT RAIN  58  54  86 SW9       29.94F
MORGANTOWN     CLOUDY    59  53  80 SW9       29.94F
$$

WVZ025-035-042-045-171800-
Southern West Virginia

CITY           SKY/WX    TMP DP  RH WIND       PRES   REMARKS
BECKLEY        CLOUDY    56  50  80 SW23G32   30.06F
LOGAN          CLOUDY    57  55  94 VRB3      30.01F
BLUEFIELD      CLOUDY    56  48  74 SW17G24   30.10F
LEWISBURG      LGT RAIN  47  47  98 CALM      30.08F
$$

WVZ047-171800-
Northern Mountains of West Virginia

CITY           SKY/WX    TMP DP  RH WIND       PRES   REMARKS
ELKINS         CLOUDY    57  52  83 S9        29.99F
$$

WVZ052-171800-
Eastern Panhandle of West Virginia

CITY           SKY/WX    TMP DP  RH WIND       PRES   REMARKS
MARTINSBURG    FOG       38  37  97 CALM      30.06F VSB 1/2
PETERSBURG     CLOUDY    44  41  91 CALM      30.01F FOG
$$



USA.gov is the U.S. government's official web portal to all federal, state and local government web resources and services.